GFA238 OBBI-OKKK

Flight info

Callsign GFA238
Flight time 0h 44m
Altitude 26000
Route BHR075/12L BHR A453 KUMBO/N0396F240 A453 DEBTI
Aircraft A320/M-SDE3FGHIRWY/LB1

Departure

Time 2026-04-27 16:15
Airport Bahrain International Airport (OBBI)

Arrival

Time 2026-04-27 17:00
Airport Kuwait International Airport (OKKK)
Time Latitude Longitude Altitude Speed Heading
2026-04-27 15:44 26.26793 50.63150 14 ft 0 kts 213°
2026-04-27 16:02 26.26794 50.63150 14 ft 1 kts 213°
2026-04-27 16:02 26.26814 50.63165 14 ft 4 kts 216°
2026-04-27 16:03 26.26832 50.63183 14 ft 4 kts 232°
2026-04-27 16:03 26.26843 50.63208 16 ft 4 kts 273°
2026-04-27 16:03 26.26839 50.63224 16 ft 1 kts 303°
2026-04-27 16:03 26.26838 50.63227 16 ft 0 kts 303°
2026-04-27 16:06 26.26846 50.63213 16 ft 3 kts 303°
2026-04-27 16:06 26.26877 50.63172 14 ft 13 kts 326°
2026-04-27 16:06 26.26977 50.63165 13 ft 16 kts 343°
2026-04-27 16:06 26.27048 50.63070 16 ft 17 kts 302°
2026-04-27 16:07 26.27120 50.62951 15 ft 21 kts 305°
2026-04-27 16:07 26.27211 50.62805 16 ft 25 kts 303°
2026-04-27 16:07 26.27313 50.62634 15 ft 29 kts 303°
2026-04-27 16:07 26.27430 50.62431 16 ft 32 kts 303°
2026-04-27 16:08 26.27551 50.62224 14 ft 33 kts 303°
2026-04-27 16:08 26.27677 50.62007 14 ft 34 kts 303°
2026-04-27 16:08 26.27804 50.61787 15 ft 32 kts 303°
2026-04-27 16:08 26.27901 50.61659 15 ft 11 kts 330°
2026-04-27 16:09 26.27933 50.61651 16 ft 0 kts
2026-04-27 16:13 26.27993 50.61671 16 ft 12 kts 28°
2026-04-27 16:13 26.28007 50.61769 18 ft 14 kts 122°
2026-04-27 16:14 26.28002 50.61778 17 ft 0 kts 122°
2026-04-27 16:14 26.27993 50.61793 16 ft 12 kts 122°
2026-04-27 16:15 26.27328 50.62952 17 ft 149 kts 123°
2026-04-27 16:15 26.26054 50.65133 937 ft 169 kts 123°
2026-04-27 16:16 26.25029 50.67553 2048 ft 185 kts 88°
2026-04-27 16:16 26.26541 50.69751 3015 ft 202 kts 13°
2026-04-27 16:17 26.29390 50.69107 3775 ft 235 kts 334°
2026-04-27 16:17 26.32698 50.67455 4713 ft 274 kts 334°
2026-04-27 16:18 26.36224 50.65735 6431 ft 280 kts 333°
2026-04-27 16:18 26.39808 50.63929 8024 ft 286 kts 332°
2026-04-27 16:19 26.41600 50.63019 8820 ft 289 kts 332°
2026-04-27 16:19 26.43438 50.62088 9633 ft 292 kts 332°
2026-04-27 16:20 26.49474 50.59028 10871 ft 339 kts 332°
2026-04-27 16:20 26.51634 50.57939 11577 ft 342 kts 332°
2026-04-27 16:20 26.55959 50.55763 13070 ft 346 kts 332°
2026-04-27 16:21 26.58207 50.54630 13807 ft 348 kts 332°
2026-04-27 16:21 26.64865 50.51263 15729 ft 356 kts 332°
2026-04-27 16:22 26.67125 50.50118 16362 ft 358 kts 332°
2026-04-27 16:22 26.71415 50.47326 17613 ft 357 kts 315°
2026-04-27 16:22 26.73224 50.45430 18232 ft 358 kts 313°
2026-04-27 16:23 26.75034 50.43502 18780 ft 361 kts 313°
2026-04-27 16:23 26.78716 50.39595 19866 ft 367 kts 312°
2026-04-27 16:23 26.80579 50.37623 20404 ft 370 kts 312°
2026-04-27 16:24 26.82460 50.35638 20924 ft 373 kts 312°
2026-04-27 16:24 26.86126 50.31768 21905 ft 380 kts 311°
2026-04-27 16:25 26.89841 50.27831 22871 ft 387 kts 311°
2026-04-27 16:25 26.93839 50.23583 23860 ft 391 kts 310°
2026-04-27 16:26 26.97782 50.19401 24673 ft 395 kts 310°
2026-04-27 16:26 27.01817 50.15122 25385 ft 402 kts 310°
2026-04-27 16:27 27.05755 50.10685 25802 ft 394 kts 304°
2026-04-27 16:27 27.10939 50.03886 25818 ft 378 kts 304°
2026-04-27 16:28 27.14338 49.99414 25818 ft 376 kts 304°
2026-04-27 16:28 27.17726 49.94939 25815 ft 378 kts 304°
2026-04-27 16:29 27.22268 49.88936 25817 ft 379 kts 304°
2026-04-27 16:30 27.26254 49.83682 25812 ft 382 kts 304°
2026-04-27 16:30 27.29811 49.78964 25818 ft 408 kts 304°
2026-04-27 16:31 27.34876 49.72254 25816 ft 435 kts 305°
2026-04-27 16:31 27.38874 49.66982 25814 ft 450 kts 305°
2026-04-27 16:32 27.42960 49.61577 25818 ft 454 kts 305°
2026-04-27 16:32 27.45009 49.58853 25813 ft 455 kts 305°
2026-04-27 16:33 27.49319 49.53618 25814 ft 463 kts 315°
2026-04-27 16:33 27.51841 49.51353 25803 ft 464 kts 316°
2026-04-27 16:33 27.54372 49.49092 25814 ft 466 kts 316°
2026-04-27 16:33 27.56916 49.46820 25839 ft 466 kts 315°
2026-04-27 16:34 27.59453 49.44552 25838 ft 465 kts 315°
2026-04-27 16:34 27.61954 49.42315 25832 ft 465 kts 315°
2026-04-27 16:34 27.64515 49.40024 25830 ft 464 kts 315°
2026-04-27 16:34 27.67005 49.37793 25830 ft 464 kts 315°
2026-04-27 16:35 27.69534 49.35522 25830 ft 464 kts 315°
2026-04-27 16:35 27.72061 49.33249 25821 ft 464 kts 315°
2026-04-27 16:35 27.77088 49.28713 25838 ft 463 kts 315°
2026-04-27 16:36 27.79615 49.26438 25835 ft 463 kts 315°
2026-04-27 16:36 27.82132 49.24172 25833 ft 462 kts 315°
2026-04-27 16:36 27.84643 49.21910 25830 ft 462 kts 315°
2026-04-27 16:36 27.87172 49.19659 25826 ft 464 kts 318°
2026-04-27 16:37 27.89942 49.17730 25827 ft 469 kts 323°
2026-04-27 16:37 27.92729 49.15908 25836 ft 470 kts 323°
2026-04-27 16:37 27.95552 49.14062 25827 ft 470 kts 323°
2026-04-27 16:37 27.98389 49.12201 25821 ft 470 kts 323°
2026-04-27 16:38 28.01219 49.10340 25816 ft 470 kts 323°
2026-04-27 16:38 28.04044 49.08482 25819 ft 470 kts 323°
2026-04-27 16:38 28.06877 49.06621 25809 ft 470 kts 323°
2026-04-27 16:38 28.09705 49.04764 25821 ft 471 kts 323°
2026-04-27 16:39 28.12540 49.02899 25786 ft 471 kts 323°
2026-04-27 16:39 28.15368 49.01036 25344 ft 470 kts 323°
2026-04-27 16:39 28.18192 48.99176 25115 ft 471 kts 323°
2026-04-27 16:39 28.21027 48.97308 24885 ft 471 kts 323°
2026-04-27 16:40 28.23827 48.95459 24292 ft 472 kts 323°
2026-04-27 16:40 28.26653 48.93590 23476 ft 472 kts 324°
2026-04-27 16:40 28.29505 48.91704 23054 ft 473 kts 324°
2026-04-27 16:40 28.32345 48.89825 22823 ft 474 kts 324°
2026-04-27 16:41 28.35191 48.87941 22821 ft 474 kts 324°
2026-04-27 16:41 28.38041 48.86052 22816 ft 474 kts 324°
2026-04-27 16:41 28.40883 48.84169 22767 ft 475 kts 324°
2026-04-27 16:41 28.43739 48.82278 22365 ft 472 kts 324°
2026-04-27 16:42 28.46573 48.80401 21709 ft 467 kts 325°
2026-04-27 16:42 28.49344 48.78569 20959 ft 457 kts 325°
2026-04-27 16:42 28.52101 48.76744 20114 ft 450 kts 326°
2026-04-27 16:42 28.54800 48.74945 19263 ft 446 kts 324°
2026-04-27 16:43 28.57268 48.72872 18455 ft 438 kts 315°
2026-04-27 16:43 28.59307 48.70387 18017 ft 423 kts 305°
2026-04-27 16:43 28.61052 48.67744 17815 ft 415 kts 304°
2026-04-27 16:43 28.62809 48.65104 17808 ft 424 kts 304°
2026-04-27 16:44 28.64596 48.62433 17795 ft 420 kts 304°
2026-04-27 16:44 28.66351 48.59817 17724 ft 413 kts 304°
2026-04-27 16:44 28.68096 48.57204 16650 ft 417 kts 304°
2026-04-27 16:44 28.69855 48.54556 15638 ft 422 kts 304°
2026-04-27 16:45 28.71624 48.51893 14829 ft 421 kts 306°
2026-04-27 16:45 28.73610 48.49450 14089 ft 421 kts 316°
2026-04-27 16:45 28.75994 48.47493 13336 ft 422 kts 328°
2026-04-27 16:45 28.78552 48.45899 12571 ft 419 kts 329°
2026-04-27 16:46 28.81063 48.44348 12164 ft 408 kts 329°
2026-04-27 16:46 28.83520 48.42832 12014 ft 397 kts 329°
2026-04-27 16:46 28.85923 48.41346 12035 ft 387 kts 329°
2026-04-27 16:46 28.88235 48.39913 11950 ft 369 kts 328°
2026-04-27 16:47 28.90473 48.38519 11244 ft 369 kts 328°
2026-04-27 16:47 28.92728 48.37108 10686 ft 371 kts 328°
2026-04-27 16:47 28.95019 48.35679 10356 ft 376 kts 329°
2026-04-27 16:47 28.97313 48.34248 9893 ft 378 kts 329°
2026-04-27 16:48 28.99596 48.32828 9435 ft 370 kts 329°
2026-04-27 16:48 29.01820 48.31446 9170 ft 364 kts 329°
2026-04-27 16:48 29.04056 48.30049 8862 ft 366 kts 328°
2026-04-27 16:49 29.08474 48.27282 8149 ft 363 kts 328°
2026-04-27 16:49 29.10707 48.25889 7803 ft 369 kts 328°
2026-04-27 16:49 29.12961 48.24480 7447 ft 371 kts 328°
2026-04-27 16:49 29.15232 48.23063 7092 ft 371 kts 328°
2026-04-27 16:50 29.17493 48.21650 6738 ft 370 kts 328°
2026-04-27 16:50 29.19745 48.20240 6387 ft 368 kts 328°
2026-04-27 16:50 29.21956 48.18856 6040 ft 355 kts 328°
2026-04-27 16:50 29.24082 48.17529 5664 ft 339 kts 328°
2026-04-27 16:51 29.26078 48.16287 5303 ft 316 kts 328°
2026-04-27 16:51 29.27957 48.15118 4957 ft 297 kts 327°
2026-04-27 16:51 29.29695 48.14032 4727 ft 283 kts 327°
2026-04-27 16:51 29.31391 48.12967 4485 ft 274 kts 327°
2026-04-27 16:52 29.33030 48.11932 4245 ft 266 kts 327°
2026-04-27 16:52 29.34625 48.10925 4001 ft 258 kts 327°
2026-04-27 16:52 29.36179 48.09943 3756 ft 251 kts 327°
2026-04-27 16:52 29.37682 48.08995 3521 ft 244 kts 327°
2026-04-27 16:53 29.39156 48.08064 3284 ft 239 kts 327°
2026-04-27 16:53 29.40598 48.07156 3045 ft 234 kts 326°
2026-04-27 16:53 29.41832 48.06043 2854 ft 218 kts 301°
2026-04-27 16:53 29.42371 48.04535 2735 ft 197 kts 264°
2026-04-27 16:54 29.42150 48.03060 2659 ft 185 kts 247°
2026-04-27 16:54 29.41736 48.01682 2587 ft 185 kts 245°
2026-04-27 16:54 29.41263 48.00301 2514 ft 187 kts 244°
2026-04-27 16:54 29.40754 47.98911 2504 ft 188 kts 244°
2026-04-27 16:55 29.40248 47.97532 2507 ft 187 kts 244°
2026-04-27 16:55 29.39748 47.96170 2536 ft 188 kts 244°
2026-04-27 16:55 29.39227 47.94759 2505 ft 190 kts 243°
2026-04-27 16:55 29.38484 47.93547 2499 ft 186 kts 214°
2026-04-27 16:56 29.37278 47.93092 2500 ft 183 kts 188°
2026-04-27 16:56 29.36087 47.93011 2494 ft 165 kts 184°
2026-04-27 16:56 29.34945 47.92981 2502 ft 166 kts 184°
2026-04-27 16:56 29.33778 47.92954 2380 ft 170 kts 184°
2026-04-27 16:57 29.32592 47.92919 2125 ft 170 kts 184°
2026-04-27 16:57 29.31430 47.92871 1988 ft 160 kts 184°
2026-04-27 16:57 29.30305 47.92883 1692 ft 166 kts 170°
2026-04-27 16:57 29.29209 47.93397 1366 ft 172 kts 158°
2026-04-27 16:58 29.28171 47.93956 1084 ft 160 kts 157°
2026-04-27 16:58 29.27196 47.94477 864 ft 149 kts 156°
2026-04-27 16:58 29.26288 47.94959 644 ft 140 kts 155°
2026-04-27 16:58 29.25421 47.95430 457 ft 132 kts 154°
2026-04-27 16:59 29.24595 47.95867 292 ft 130 kts 155°
2026-04-27 16:59 29.23781 47.96301 211 ft 130 kts 154°
2026-04-27 16:59 29.23060 47.96690 182 ft 92 kts 156°
2026-04-27 16:59 29.22608 47.96929 190 ft 55 kts 154°
2026-04-27 17:00 29.22118 47.97187 192 ft 39 kts 155°
2026-04-27 17:00 29.21929 47.97441 191 ft 24 kts 101°
2026-04-27 17:00 29.22012 47.97485 182 ft 15 kts 334°
2026-04-27 17:01 29.22105 47.97432 181 ft 15 kts 333°
2026-04-27 17:01 29.22196 47.97379 181 ft 17 kts 334°
2026-04-27 17:01 29.22356 47.97298 178 ft 33 kts 336°
2026-04-27 17:01 29.22595 47.97175 174 ft 40 kts 335°
2026-04-27 17:02 29.22823 47.97049 171 ft 37 kts 335°
2026-04-27 17:02 29.23043 47.96935 169 ft 32 kts 335°
2026-04-27 17:02 29.23257 47.96824 166 ft 35 kts 336°
2026-04-27 17:02 29.23386 47.96759 164 ft 0 kts
2026-04-27 17:03 29.23392 47.96791 163 ft 9 kts 92°
2026-04-27 17:03 29.23432 47.96879 161 ft 21 kts 62°
2026-04-27 17:03 29.23514 47.97069 158 ft 28 kts 65°
2026-04-27 17:03 29.23595 47.97279 156 ft 30 kts 67°
2026-04-27 17:04 29.23665 47.97455 154 ft 15 kts 38°
2026-04-27 17:04 29.23746 47.97437 153 ft 13 kts 337°
2026-04-27 17:04 29.23843 47.97368 153 ft 16 kts 285°
2026-04-27 17:04 29.23841 47.97273 153 ft 7 kts 268°
2026-04-27 17:05 29.23841 47.97266 153 ft 0 kts 270°